GW5481 Weather Reports


time (UTC)temp
C
wind
direction
speed
KPH
gust
KPH
rain 1hr
cm
rain 24hr
cm
rain mn
cm
humidity
%
barometer
mb
20260507163011 13 268 1.6 9.7 0.00 1.65 0.00 48 993.2
20260507161509 12 312 1.6 9.7 0.00 1.65 0.00 46 993.6
20260507160004 12 349 3.2 8.0 0.00 1.73 0.00 45 993.8
20260507154600 11 191 3.2 11.3 0.00 1.73 0.00 42 994.0
20260507153111 10 55 1.6 16.1 0.00 1.73 0.00 44 993.9
20260507151558 9 232 3.2 12.9 0.00 1.73 0.00 46 993.9
20260507150053 8 268 4.8 24.1 0.00 1.73 0.00 43 993.9
20260507144545 8 172 3.2 17.7 0.00 1.73 0.00 47 994.0
20260507143049 7 232 0.0 4.8 0.00 1.73 0.00 50 994.2
20260507141539 7 248 3.2 9.7 0.00 1.73 0.00 47 994.1
20260507140037 6 199 0.0 9.7 0.00 1.73 0.00 50 994.3
20260507134535 6 194 0.0 3.2 0.00 1.73 0.00 50 994.3
20260507133032 6 107 0.0 9.7 0.00 1.73 0.00 50 994.4
20260507131529 5 254 0.0 8.0 0.00 1.73 0.00 50 994.3
20260507130052 4 360 1.6 12.9 0.00 1.73 0.00 48 994.3
20260507124522 2 263 3.2 8.0 0.00 1.73 0.00 52 994.0
20260507123020 0 297 0.0 0.0 0.00 1.73 0.00 66 994.0
20260507121520 0 253 0.0 11.3 0.00 1.73 0.00 71 993.8
20260507120022 1 337 0.0 1.6 0.00 1.73 0.00 67 993.8
20260507114520 2 337 0.0 1.6 0.00 1.73 0.00 59 993.7
20260507113016 2 149 0.0 0.0 0.00 1.73 0.00 55 993.8
20260507111517 2 149 0.0 4.8 0.00 1.73 0.00 55 993.9
20260507110011 1 138 0.0 1.6 0.00 1.73 0.00 57 994.1
20260507104509 1 138 0.0 0.0 0.00 1.73 0.00 59 994.3
20260507103006 1 137 0.0 0.0 0.00 1.73 0.00 60 994.3
20260507101503 1 234 0.0 6.4 0.00 1.73 0.00 63 994.5
20260507100113 -1 238 1.6 6.4 0.00 1.73 0.00 77 994.6
20260507094557 -2 170 0.0 1.6 0.00 1.73 0.00 82 994.4
20260507093100 -2 163 0.0 3.2 0.00 1.73 0.00 83 994.5
20260507091557 -1 163 0.0 0.0 0.00 1.73 0.00 83 994.6
20260507090051 -1 163 0.0 0.0 0.00 1.73 0.00 82 994.7
20260507084551 -1 163 0.0 0.0 0.00 1.73 0.00 81 994.7
20260507083103 0 163 0.0 3.2 0.00 1.73 0.00 80 994.7
20260507081555 0 163 0.0 4.8 0.00 1.73 0.00 80 994.9
20260507080043 0 163 0.0 4.8 0.00 1.73 0.00 81 995.1
20260507074541 0 174 0.0 1.6 0.00 1.73 0.00 83 995.2
20260507073051 0 163 0.0 8.0 0.00 1.73 0.00 85 995.3
20260507071538 0 186 0.0 4.8 0.00 1.73 0.00 86 995.4
20260507070041 0 136 0.0 3.2 0.00 1.73 0.00 87 995.3
20260507064540 0 132 0.0 8.0 0.00 1.73 0.00 87 995.4
20260507063034 0 221 0.0 3.2 0.00 1.73 0.00 88 995.5
20260507061532 0 223 0.0 1.6 0.00 1.73 0.00 88 995.6
20260507060029 0 223 0.0 0.0 0.00 1.73 1.73 88 995.7
20260507054537 0 155 0.0 11.3 0.00 1.73 1.73 88 995.5
20260507053028 0 194 3.2 12.9 0.00 1.73 1.73 88 995.5
20260507051528 0 152 1.6 11.3 0.00 1.73 1.73 88 995.6
20260507050034 0 169 0.0 8.0 0.00 1.73 1.73 87 995.6
20260507044535 0 209 0.0 4.8 0.00 1.73 1.73 87 995.8
20260507043026 0 247 0.0 11.3 0.00 1.73 1.73 86 996.1
20260507041534 0 172 3.2 11.3 0.00 1.73 1.73 87 995.9
20260507040024 0 183 3.2 11.3 0.00 1.73 1.73 87 995.8
20260507034523 0 146 1.6 8.0 0.00 1.73 1.73 88 995.8
20260507033026 -1 153 0.0 4.8 0.00 1.73 1.73 88 996.0
20260507031526 -1 155 0.0 4.8 0.00 1.73 1.73 88 995.8
20260507030022 -1 167 0.0 3.2 0.00 1.73 1.73 89 995.7
20260507024523 -1 156 0.0 0.0 0.00 1.73 1.73 89 995.7
20260507023020 -1 178 0.0 0.0 0.00 1.73 1.73 88 995.7
20260507021520 0 179 0.0 3.2 0.00 1.73 1.73 87 995.7
20260507020023 0 179 0.0 0.0 0.00 1.73 1.73 86 995.8
20260507014524 0 179 0.0 0.0 0.00 1.73 1.73 84 995.8
20260507013023 0 179 0.0 1.6 0.00 1.73 1.73 82 995.9
20260507011520 1 179 0.0 3.2 0.00 1.73 1.73 82 995.8
20260507010017 1 179 0.0 0.0 0.00 1.75 1.73 82 995.9
20260507004531 1 179 0.0 0.0 0.00 1.75 1.73 80 995.8
20260507003016 1 179 0.0 4.8 0.00 1.75 1.73 79 995.8
20260507001520 1 223 0.0 1.6 0.00 1.75 1.73 75 995.8
20260507000019 2 224 3.2 6.4 0.00 1.85 1.73 70 996.0
20260506234516 3 223 0.0 1.6 0.00 1.85 1.73 70 996.0
20260506233011 3 294 0.0 4.8 0.00 1.85 1.73 70 996.0
20260506231527 2 292 0.0 6.4 0.03 1.85 1.73 78 996.2
20260506230010 1 333 0.0 3.2 0.05 1.93 1.73 76 996.4
20260506224510 2 298 0.0 1.6 0.08 1.93 1.73 74 996.4
20260506223008 3 293 3.2 8.0 0.15 1.93 1.73 72 996.4
20260506221503 2 323 1.6 8.0 0.18 1.91 1.70 75 996.4
20260506220002 2 325 0.0 4.8 0.20 1.96 1.68 74 996.4
20260506214549 3 350 0.0 0.0 0.23 1.93 1.65 76 996.4
20260506213102 2 351 0.0 6.4 0.25 1.85 1.57 78 996.4
20260506211554 1 350 0.0 6.4 0.28 1.80 1.52 83 996.7
20260506210041 1 351 1.6 4.8 0.30 1.75 1.45 83 997.0
20260506204547 1 350 3.2 4.8 0.33 1.75 1.42 81 997.0
20260506203043 1 332 0.0 0.0 0.33 1.65 1.32 84 997.0
20260506201551 1 42 1.6 4.8 0.30 1.55 1.22 83 997.2
20260506200034 1 317 0.0 4.8 0.38 1.52 1.17 88 997.1
20260506194534 0 10 1.6 6.4 0.41 1.42 1.07 86 997.3
20260506193036 1 324 0.0 4.8 0.46 1.35 0.99 85 997.4
20260506191540 1 327 0.0 8.0 0.46 1.27 0.91 84 997.3
20260506190031 0 24 1.6 6.4 0.38 1.19 0.79 86 997.5
20260506184531 0 57 0.0 6.4 0.30 1.07 0.66 87 997.3
20260506183040 0 35 1.6 6.4 0.23 0.94 0.53 85 997.2
20260506181529 0 51 0.0 6.4 0.25 0.86 0.46 86 997.2
20260506180028 0 18 0.0 4.8 0.28 0.89 0.41 87 997.5
20260506174528 0 55 1.6 6.4 0.25 0.84 0.36 85 997.3
20260506173027 0 33 1.6 6.4 0.20 0.79 0.30 86 996.6
20260506171530 1 41 0.0 4.8 0.10 0.69 0.20 86 996.7
20260506170024 1 42 0.0 4.8 0.05 0.71 0.13 90 996.8
20260506164522 0 61 0.0 9.7 0.08 0.71 0.10 90 996.5